User: anonymous   Login
Location: Unspecified
(0.0000°N, 0.0000°E)
Time: 01:13:19
(UTC+00:00)
Language:

Explorer 7 - Orbit

View from above orbital plane
View from above orbital plane
View from above satellite
View from above satellite

Ground track
Ground track

The orbit data is extracted from the following two-line orbital elements,

1 00022U 59009A   16242.15712747  .00000645  00000-0  72932-4 0  9998
2 00022  50.2845 129.8943 0143498 359.5800   0.5005 14.93670886 17690
Epoch (UTC): 29 August 2016 03:46:15
Eccentricity: 0.0143498
inclination: 50.2845°
perigee height: 486 km
apogee height: 686 km
right ascension of ascending node: 129.8943°
argument of perigee: 359.5800°
revolutions per day: 14.93670886
mean anomaly at epoch: 0.5005°
orbit number at epoch: 1769

The dashed part of the orbit path shows where the satellite is in the earth's shadow,  

DLR